Warning: Javascript must be enabled to use all the features on this page!


Page Loading - Please Wait...

Click to hideNews Bulletins

Peak Streamflow for the Nation

USGS 02307323 BROOKER CREEK NEAR LAKE FERN FL

Hillsborough County, Florida
Hydrologic Unit Code 03100206
Latitude  28°08'26", Longitude  82°38'24" NAD27
Drainage area 17.0  square miles
Contributing drainage area 17  square miles
Gage datum 25.52 feet above NGVD29
Output formats
Table
Graph
Tab-separated file
peakfq (watstore) format
Reselect output format
Water
Year
Date Gage
Height
(feet)
Stream-
flow
(cfs)
1970 1970-08-29 3.02 3.00
1971 1971-09-10 5.86 326
1972 1972-02-17 3.39 10.0
1973 1973-02-11 2.82 2.00
1974 1974-06-27 5.90 333
1975 1975-09-24 5.06 91.0
1976 1975-10-08 5.33 130
1977 1976-10-01 4.26 57.0
1978 1978-03-10 4.32 70.0
1979 1979-09-24 5.91 319
1980 1980-04-14 3.82 34.0
1981 1981-08-30 3.06 6.90
1982 1982-08-19 4.75 102
1983 1983-02-17 4.54 81.0
1984 1983-12-30 4.62 87.0
1985 1985-09-13 4.46 73.0
1986 1986-09-02 4.26 59.0
1987 1987-03-31 5.15 182
1988 1988-09-09 6.09 472
1989 1988-11-23 4.73 129
1990 1990-08-25 3.48 28.0
1991 1991-08-02 4.47 74.0
1992 1991-10-08 2.57 3.50
1993 1992-10-04 3.64 34.0
1994 1993-10-17 3.00 6.10
2009 2009-09-28 3.76 74.0
2010 2010-08-30 4.23 141
2011 2011-08-10 4.75 208
2012 2012-07-18 5.41 328
2013 2013-09-25 4.79 249
2014 2014-09-30 4.54 180
2015 2015-08-03 6.57 492
2016 2016-09-02 5.15 241
2017 2017-09-11 5.88 3589
2018 2018-08-30 4.02 107
2019 2018-12-20 4.82 197
2020 2020-09-02 4.25 87.0
?
  Peak Streamflow Qualification Codes.